Time,TemperatureF,DewpointF,PressureIn,WindDirection,WindDirectionDegrees,WindSpeedMPH,WindSpeedGustMPH,Humidity,HourlyPrecipIn,Conditions,Clouds,dailyrainin,SolarRadiationWatts/m^2,SoftwareType,DateUTC
2017-02-23 00:02:00,40.3,33.3,30.17,NW,319,0.0,0.0,76,0.00,,,0.00,0,Wunderground v.1.15,2017-02-23 08:02:00,
2017-02-23 00:11:00,39.8,33.5,30.17,SW,215,0.0,1.0,78,0.00,,,0.00,0,Wunderground v.1.15,2017-02-23 08:11:00,
2017-02-23 00:20:00,39.5,33.2,30.17,WNW,290,0.0,3.0,78,0.00,,,0.00,0,Wunderground v.1.15,2017-02-23 08:20:00,
2017-02-23 00:29:00,39.5,32.9,30.16,WNW,290,0.0,0.0,77,0.00,,,0.00,0,Wunderground v.1.15,2017-02-23 08:29:00,
2017-02-23 00:39:00,39.6,32.7,30.16,West,263,0.0,4.0,76,0.00,,,0.00,0,Wunderground v.1.15,2017-02-23 08:39:00,
2017-02-23 00:48:00,39.6,32.3,30.16,WNW,295,1.0,3.0,75,0.00,,,0.00,0,Wunderground v.1.15,2017-02-23 08:48:00,
2017-02-23 00:57:00,39.7,32.4,30.16,NNE,25,1.0,1.0,75,0.00,,,0.00,0,Wunderground v.1.15,2017-02-23 08:57:00,
2017-02-23 01:06:00,39.8,32.5,30.16,NNW,348,1.0,1.0,75,0.00,,,0.00,0,Wunderground v.1.15,2017-02-23 09:06:00,
2017-02-23 01:16:00,39.8,32.8,30.16,WSW,249,1.0,7.0,76,0.00,,,0.00,0,Wunderground v.1.15,2017-02-23 09:16:00,
2017-02-23 01:24:00,39.7,33.1,30.16,NW,306,3.0,7.0,77,0.00,,,0.00,0,Wunderground v.1.15,2017-02-23 09:24:00,
2017-02-23 01:34:00,39.7,32.8,30.16,NW,307,6.0,6.0,76,0.00,,,0.00,0,Wunderground v.1.15,2017-02-23 09:34:00,
2017-02-23 01:43:00,39.7,32.8,30.16,West,264,4.0,6.0,76,0.00,,,0.00,0,Wunderground v.1.15,2017-02-23 09:43:00,
2017-02-23 01:52:00,39.6,33.0,30.16,WSW,244,2.0,2.0,77,0.00,,,0.00,0,Wunderground v.1.15,2017-02-23 09:52:00,
2017-02-23 02:01:00,39.4,32.8,30.15,WSW,252,2.0,4.0,77,0.00,,,0.00,0,Wunderground v.1.15,2017-02-23 10:01:00,
2017-02-23 02:11:00,39.3,32.7,30.16,West,270,1.0,4.0,77,0.00,,,0.00,0,Wunderground v.1.15,2017-02-23 10:11:00,
2017-02-23 02:19:00,39.3,32.7,30.16,West,265,1.0,2.0,77,0.00,,,0.00,0,Wunderground v.1.15,2017-02-23 10:19:00,
2017-02-23 02:29:00,39.3,32.7,30.15,NNW,327,0.0,0.0,77,0.00,,,0.00,0,Wunderground v.1.15,2017-02-23 10:29:00,
2017-02-23 02:38:00,39.3,32.7,30.15,WSW,248,1.0,1.0,77,0.00,,,0.00,0,Wunderground v.1.15,2017-02-23 10:38:00,
2017-02-23 02:47:00,39.2,32.3,30.15,West,279,1.0,1.0,76,0.00,,,0.00,0,Wunderground v.1.15,2017-02-23 10:47:00,
2017-02-23 02:57:00,39.1,32.2,30.15,WNW,299,0.0,2.0,76,0.00,,,0.00,0,Wunderground v.1.15,2017-02-23 10:57:00,
2017-02-23 03:06:00,39.0,32.1,30.15,WNW,286,1.0,1.0,76,0.00,,,0.00,0,Wunderground v.1.15,2017-02-23 11:06:00,
2017-02-23 03:14:00,38.9,32.0,30.15,WSW,244,0.0,2.0,76,0.00,,,0.00,0,Wunderground v.1.15,2017-02-23 11:14:00,
2017-02-23 03:24:00,38.9,32.0,30.15,ENE,77,1.0,1.0,76,0.00,,,0.00,0,Wunderground v.1.15,2017-02-23 11:24:00,
2017-02-23 03:33:00,38.8,31.6,30.14,SW,234,2.0,3.0,75,0.00,,,0.00,0,Wunderground v.1.15,2017-02-23 11:33:00,
2017-02-23 03:42:00,38.9,31.6,30.15,SE,138,1.0,3.0,75,0.00,,,0.00,0,Wunderground v.1.15,2017-02-23 11:42:00,
2017-02-23 03:51:00,38.9,31.6,30.15,NE,52,2.0,4.0,75,0.00,,,0.00,0,Wunderground v.1.15,2017-02-23 11:51:00,
2017-02-23 04:01:00,38.9,31.6,30.15,ENE,74,2.0,3.0,75,0.00,,,0.00,0,Wunderground v.1.15,2017-02-23 12:01:00,
2017-02-23 04:10:00,38.9,31.6,30.15,NNE,22,2.0,2.0,75,0.00,,,0.00,0,Wunderground v.1.15,2017-02-23 12:10:00,
2017-02-23 04:19:00,38.9,32.0,30.15,NNE,28,5.0,5.0,76,0.00,,,0.00,0,Wunderground v.1.15,2017-02-23 12:19:00,
2017-02-23 04:28:00,38.9,31.6,30.15,ENE,74,2.0,2.0,75,0.00,,,0.00,0,Wunderground v.1.15,2017-02-23 12:28:00,
2017-02-23 04:37:00,39.0,31.7,30.15,ENE,72,5.0,5.0,75,0.00,,,0.00,0,Wunderground v.1.15,2017-02-23 12:37:00,
2017-02-23 04:46:00,39.1,31.8,30.15,North,360,6.0,6.0,75,0.00,,,0.00,0,Wunderground v.1.15,2017-02-23 12:46:00,
2017-02-23 04:56:00,39.2,31.9,30.15,NNE,32,6.0,6.0,75,0.00,,,0.00,0,Wunderground v.1.15,2017-02-23 12:56:00,
2017-02-23 05:05:00,39.1,31.8,30.15,North,360,4.0,6.0,75,0.00,,,0.00,0,Wunderground v.1.15,2017-02-23 13:05:00,